MDT,Max TemperatureF,Mean TemperatureF,Min TemperatureF,Max Dew PointF,MeanDew PointF,Min DewpointF,Max Humidity, Mean Humidity, Min Humidity, Max Sea Level PressureIn, Mean Sea Level PressureIn, Min Sea Level PressureIn, Max VisibilityMiles, Mean VisibilityMiles, Min VisibilityMiles, Max Wind SpeedMPH, Mean Wind SpeedMPH, Max Gust SpeedMPH,PrecipitationIn, CloudCover, Events, WindDirDegrees
2013-4-1,49,36,24,29,26,20,86,66,45,30.20,30.14,30.07,10,10,10,21,10,25,0.00,1,Thunderstorm,89
2013-4-2,46,40,33,33,30,28,96,72,53,30.16,30.11,30.09,10,10,10,16,9,21,0.00,8,,124
2013-4-3,58,45,32,36,33,30,98,70,35,30.15,30.11,30.04,10,10,5,9,4,10,0.00,4,,148
2013-4-4,69,52,34,36,30,24,90,50,18,30.17,30.09,30.00,10,10,10,13,6,,0.00,0,,215
2013-4-5,74,56,39,40,29,19,67,40,13,30.00,29.84,29.68,10,10,7,41,8,59,0.00,2,Rain,246
2013-4-6,66,54,43,31,22,13,48,29,13,29.94,29.89,29.84,10,10,10,31,18,40,0.00,2,,292
2013-4-7,67,54,41,39,29,20,86,43,17,29.87,29.77,29.67,10,10,10,15,7,21,0.00,2,Rain,287
2013-4-8,73,50,25,40,31,23,94,58,18,29.76,29.60,29.42,10,10,3,45,11,61,0.00,2,Thunderstorm,71
2013-4-9,24,18,9,21,12,6,89,84,79,30.19,30.04,29.75,10,4,0,37,27,50,0.00,8,,354
2013-4-10,25,15,5,16,10,2,87,75,62,30.16,30.06,29.91,10,10,7,28,11,30,0.00,2,,338
2013-4-11,49,30,12,35,23,10,92,74,51,29.90,29.80,29.73,10,10,10,33,9,39,0.00,4,,312
2013-4-12,55,42,30,40,31,28,95,74,39,30.02,29.94,29.88,10,10,10,31,6,40,0.00,3,,300
2013-4-13,62,46,29,39,33,28,99,68,30,29.98,29.64,29.39,10,10,10,28,7,32,0.00,3,,106
2013-4-14,50,42,34,39,15,0,89,40,13,29.78,29.62,29.49,10,10,5,45,25,54,0.00,2,,299
2013-4-15,36,31,26,27,25,16,96,85,43,30.03,29.87,29.78,10,7,0,20,12,23,0.00,8,,31
2013-4-16,35,30,25,30,27,25,99,90,76,30.04,29.97,29.89,10,8,3,24,13,31,0.00,8,,87
2013-4-17,30,26,22,29,25,18,99,91,84,30.13,30.00,29.95,10,4,0,29,15,33,0.00,8,,34
2013-4-18,31,21,11,22,16,7,87,73,60,30.14,30.11,30.09,10,9,5,29,16,36,0.00,4,,317
2013-4-19,55,36,18,32,23,14,82,61,27,30.11,30.02,29.96,10,10,10,17,9,23,0.00,3,,285
2013-4-20,60,47,34,40,30,23,89,53,30,30.03,29.94,29.91,10,10,7,15,5,20,0.00,5,,309
2013-4-21,63,48,34,41,32,21,97,62,21,30.09,30.03,29.98,10,10,5,18,7,24,0.00,2,,262
2013-4-22,47,36,23,42,30,22,95,88,75,30.32,30.09,29.91,10,6,0,33,11,41,0.00,6,,21
2013-4-23,36,28,20,24,21,16,94,77,58,30.29,30.21,30.13,10,8,1,12,7,,0.00,4,,299
2013-4-24,54,38,23,29,21,14,92,57,22,30.21,30.16,30.11,10,10,7,24,7,39,0.00,2,,264
2013-4-25,68,46,25,30,21,11,86,41,11,30.18,30.03,29.91,10,10,10,12,3,,0.00,0,,130
2013-4-26,71,56,40,30,20,14,63,28,12,30.22,30.13,29.99,10,10,10,20,9,25,0.00,1,,32
2013-4-27,77,56,34,34,23,14,83,35,9,30.22,30.10,30.00,10,10,10,17,7,26,0.00,0,,289
2013-4-28,82,60,39,35,28,21,72,35,11,30.00,29.92,29.82,10,10,10,20,11,25,0.00,2,,289
2013-4-29,81,62,44,42,32,22,81,37,11,29.98,29.76,29.59,10,10,10,18,9,29,0.00,1,Rain,200
2013-4-30,58,49,40,35,32,27,79,53,31,30.01,29.81,29.62,10,10,10,30,13,37,0.00,4,,33